[[{"header":{"parameterUnit":"m.s-1","parameterCategory":1,"la1":30.2991,"la2":30.254,"lo1":-89.0895,"lo2":-89.0444,"dy":0.0017,"dx":0.0017,"nx":28,"ny":28,"refTime":"2023-08-19T21:00:00:Z","depth":0,"parameterNumber":2,"parameterNumberName":"U-component_of_WINDS"},"data":[0,0,0,0,0,0,0,0,0,0,0,0,0,0,0,0,0,0,0,0,0,0,0,0,0,0,0,0,0,0,0,0,0,0,0,0,0,0,0,0,0,0,0,0,0,0,0,0,0,0,0,0,0,0,0,0,0,0,1.1322,1.1323,0,1.1436,1.1437,1.1438,1.1451,1.145,1.1448,1.1447,1.1569,1.1574,1.1578,0,0,0,0,0,0,0,0,0,0,0,0,0,1.1117,1.1121,1.1322,1.1323,1.1325,1.1436,1.1437,1.1439,1.1451,1.145,1.1448,1.1447,1.1568,1.1573,1.1578,0,0,0,0,0,0,0,0,0,0,0,0,0,1.1216,1.1122,1.1321,1.1344,1.1347,1.1435,1.1437,1.1439,1.1451,1.145,1.1448,1.1446,1.1566,1.1573,1.1579,1.1654,0,0,1.1599,1.1602,0,0,0,0,0,0,0,0,1.1211,1.1224,1.1339,1.1343,1.1346,1.1427,1.141,1.1512,1.1452,1.1412,1.1447,1.1445,1.1524,1.1534,1.1559,1.166,1.1665,1.1599,1.1603,1.1606,1.1608,0,0,0,0,0,0,0,1.1204,1.1219,1.1367,1.1341,1.1345,1.1349,1.1361,1.1429,1.1477,1.1415,1.1416,1.1429,1.1525,1.1553,1.1562,1.1667,1.1599,1.1605,1.1609,1.1612,1.1833,1.1835,0,0,0,0,0,0,1.1192,1.1213,1.1363,1.137,1.1273,1.1354,1.1368,1.1403,1.1476,1.1485,1.1431,1.143,1.1543,1.1554,1.1566,1.1657,1.1606,1.1612,1.1616,1.1831,1.1833,1.1835,0,0,0,0,0,0,1.1188,1.1205,1.1359,1.1292,1.1312,1.136,1.1399,1.1406,1.1434,1.1487,1.1496,1.145,1.1542,1.1557,1.1631,1.1662,1.1615,1.1621,1.1829,1.1832,1.1834,1.1841,0,0,0,0,0,0,1.1182,1.1204,1.1232,1.1293,1.1315,1.1421,1.1401,1.141,1.1444,1.1444,1.1508,1.1517,1.1541,1.1622,1.1638,1.167,1.1626,1.1826,1.183,1.1833,1.1838,1.1844,1.1849,0,0,0,0,0,1.1174,1.1231,1.1234,1.1252,1.1352,1.1423,1.1436,1.1462,1.1447,1.1476,1.151,1.1515,1.1656,1.1629,1.1648,1.1682,1.1824,1.1829,1.1833,1.1836,1.1843,1.1849,0,0,0,0,0,0,1.1176,1.124,1.1243,1.1321,1.1366,1.1425,1.1463,1.1469,1.152,1.1518,1.1549,1.1564,1.1636,1.1667,1.1636,1.1758,1.1739,1.1747,1.1735,1.1742,1.1747,1.1737,1.1632,0,0,0,0,0,1.1185,1.1236,1.129,1.1353,1.1375,1.1415,1.1447,1.1462,1.1511,1.1531,1.1571,1.1619,1.1674,1.171,1.1763,1.1843,1.1856,1.1876,1.1881,1.1885,1.1891,1.1934,1.1942,1.185,1.185,1.185,0,0,1.1205,1.1246,1.1277,1.1354,1.1391,1.1443,1.1431,1.1488,1.1527,1.154,1.1611,1.1642,1.1698,1.1774,1.181,1.1802,1.192,1.189,1.1893,1.1898,1.1939,1.1948,1.1955,1.1853,1.1852,1.1852,0,0,1.1267,1.1304,1.136,1.1396,1.1451,1.1476,1.149,1.1547,1.1567,1.1639,1.1648,1.1696,1.1791,1.1829,1.1862,1.1936,1.1941,1.1953,1.198,1.202,1.2027,1.2034,1.2059,1.2068,1.1959,1.1959,1.1959,0,1.1286,1.1364,1.1388,1.1444,1.1477,1.1489,1.1545,1.158,1.165,1.1673,1.1663,1.178,1.1819,1.1903,1.192,1.1947,1.1962,1.1945,1.2024,1.2031,1.2038,1.2062,1.2071,1.196,1.196,1.196,1.196,0,1.1383,1.1437,1.1475,1.154,1.1578,1.1634,1.1667,1.1703,1.1714,1.1741,1.1813,1.1859,1.1921,1.1943,1.1956,1.2029,1.2022,1.2017,1.1999,1.2047,1.207,1.2079,1.1961,1.1961,1.1961,1.1961,0,0,1.145,1.1526,1.1539,1.1568,1.1628,1.1671,1.1727,1.1785,1.1814,1.1862,1.191,1.1988,1.1983,1.202,1.2037,1.2073,1.2126,1.2065,1.2066,1.2073,1.2207,1.2209,1.2219,1.213,1.2132,1.2134,1.2202,0,1.1519,1.1617,1.1639,1.1724,1.1773,1.1784,1.1833,1.1875,1.1901,1.1947,1.1977,1.2031,1.2022,1.2043,1.2079,1.2112,1.2154,1.2108,1.2175,1.2177,1.2159,1.2231,1.2234,1.2296,1.2211,1.2213,1.2214,0,1.1612,1.1658,1.1747,1.1798,1.182,1.1863,1.1917,1.1961,1.2009,1.2026,1.2064,1.2078,1.2137,1.2115,1.2196,1.2164,1.2193,1.2213,1.2216,1.2223,1.2198,1.2239,1.2317,1.2325,1.2229,1.2227,1.2226,0,1.165,1.1735,1.1799,1.1823,1.1885,1.1915,1.1942,1.1988,1.2021,1.2069,1.209,1.2145,1.2175,1.2218,1.2245,1.2227,1.2323,1.2305,1.2338,1.2338,1.2358,1.2356,1.244,1.2378,1.2378,1.2378,1.2378,0,1.1723,1.1776,1.1816,1.1855,1.1915,1.1941,1.2,1.2027,1.2068,1.2112,1.2126,1.2168,1.2203,1.2249,1.2272,1.2334,1.2348,1.2363,1.2368,1.2361,1.2359,1.238,1.2376,1.238,1.238,1.2379,1.2379,0,1.1775,1.1804,1.1874,1.1926,1.194,1.1982,1.2027,1.2065,1.209,1.2147,1.2161,1.2202,1.2257,1.2289,1.236,1.2374,1.2443,1.2447,1.2426,1.2428,1.2459,1.2455,1.2559,1.2573,1.2503,1.2503,1.2504,0,1.1819,1.186,1.1916,1.1945,1.1973,1.2021,1.2054,1.2081,1.2114,1.2171,1.2202,1.2257,1.2303,1.2391,1.2428,1.2481,1.2486,1.2518,1.2494,1.2485,1.2484,1.2481,1.2484,1.2522,1.2523,1.2523,1.2524,0,1.1894,1.1906,1.1952,1.2002,1.204,1.2082,1.2123,1.2147,1.2181,1.2218,1.2273,1.2309,1.2379,1.2434,1.249,1.2519,1.2527,1.2531,1.2541,1.2534,1.2519,1.2526,1.2436,1.2528,1.2528,1.2527,1.2527,1.2527,1.1943,1.1979,1.2022,1.2073,1.2106,1.2144,1.2181,1.221,1.2256,1.2314,1.2328,1.2386,1.2431,1.2506,1.2537,1.2583,1.2577,1.2593,1.2596,1.2599,1.2599,1.2512,1.2593,1.2593,1.2593,1.2593,1.2593,0,1.2016,1.2044,1.209,1.2146,1.2186,1.2188,1.2233,1.2266,1.2316,1.2357,1.2401,1.2464,1.2516,1.2556,1.2609,1.2639,1.2643,1.2652,1.265,1.2656,1.2602,1.2587,1.2647,1.2647,1.2647,1.2647,1.2647,1.2647,1.2059,1.2119,1.2136,1.2212,1.2241,1.2296,1.2321,1.2356,1.2388,1.2457,1.25,1.2525,1.2565,1.2621,1.2669,1.268,1.2698,1.2706,1.2716,1.2666,1.266,1.2654,1.264,1.271,1.271,1.2766,1.2766,1.2767]},{"header":{"parameterUnit":"m.s-1","parameterCategory":1,"la1":30.2991,"la2":30.254,"lo1":-89.0895,"lo2":-89.0444,"dy":0.0017,"dx":0.0017,"nx":28,"ny":28,"refTime":"2023-08-19T21:00:00:Z","depth":0,"parameterNumber":3,"parameterNumberName":"V-component_of_WINDS"},"data":[0,0,0,0,0,0,0,0,0,0,0,0,0,0,0,0,0,0,0,0,0,0,0,0,0,0,0,0,0,0,0,0,0,0,0,0,0,0,0,0,0,0,0,0,0,0,0,0,0,0,0,0,0,0,0,0,0,0,4.9061,4.906,0,4.9024,4.9023,4.9023,4.8993,4.8993,4.8993,4.8992,4.8951,4.895,4.8949,0,0,0,0,0,0,0,0,0,0,0,0,0,4.9101,4.91,4.9061,4.906,4.906,4.9024,4.9023,4.9023,4.8993,4.8993,4.8993,4.8992,4.8951,4.895,4.8949,0,0,0,0,0,0,0,0,0,0,0,0,0,4.9075,4.91,4.9061,4.9041,4.9039,4.9024,4.9023,4.9022,4.8993,4.8993,4.8993,4.8992,4.8952,4.895,4.8949,4.895,0,0,4.8945,4.8945,0,0,0,0,0,0,0,0,4.9077,4.9074,4.9044,4.9042,4.904,4.9013,4.9022,4.8998,4.8994,4.9011,4.8992,4.8992,4.8972,4.8969,4.8963,4.8948,4.8946,4.8945,4.8944,4.8944,4.8944,0,0,0,0,0,0,0,4.9079,4.9075,4.9046,4.9044,4.9041,4.9032,4.9028,4.9017,4.8994,4.9009,4.9007,4.9003,4.897,4.8964,4.8961,4.8946,4.8945,4.8944,4.8943,4.8943,4.8924,4.8925,0,0,0,0,0,0,4.9084,4.9077,4.9047,4.9045,4.9058,4.9032,4.9027,4.9022,4.8994,4.8989,4.9003,4.9002,4.8966,4.8963,4.896,4.8956,4.8944,4.8943,4.8942,4.8924,4.8924,4.8925,0,0,0,0,0,0,4.9085,4.9082,4.9049,4.906,4.9055,4.9031,4.9026,4.9021,4.9015,4.899,4.8985,4.9002,4.8966,4.8962,4.8952,4.8954,4.8942,4.8941,4.8924,4.8924,4.8925,4.895,0,0,0,0,0,0,4.9087,4.9082,4.9084,4.9061,4.9055,4.9043,4.9026,4.9021,4.9013,4.9011,4.8987,4.8982,4.8965,4.8954,4.895,4.8952,4.894,4.8923,4.8924,4.8924,4.8949,4.8951,4.8953,0,0,0,0,0,4.9088,4.9093,4.9084,4.9081,4.9057,4.9044,4.904,4.9021,4.9014,4.9014,4.8997,4.8983,4.8954,4.8953,4.8949,4.895,4.8923,4.8924,4.8924,4.8948,4.8951,4.8953,0,0,0,0,0,0,4.9117,4.909,4.908,4.9078,4.9063,4.9039,4.9039,4.9026,4.9012,4.901,4.8986,4.8981,4.8973,4.8961,4.896,4.8947,4.8937,4.8937,4.8956,4.8958,4.896,4.8963,4.8939,0,0,0,0,0,4.9123,4.9116,4.9092,4.9092,4.9085,4.9063,4.9057,4.9043,4.9027,4.902,4.9003,4.8986,4.8973,4.8965,4.8952,4.8946,4.8939,4.8945,4.8947,4.8949,4.8949,4.8942,4.8943,4.8927,4.8927,4.8927,0,0,4.9136,4.912,4.9117,4.9097,4.9085,4.9076,4.9058,4.9051,4.9043,4.9019,4.9008,4.8994,4.8974,4.8965,4.8961,4.8955,4.8952,4.895,4.8952,4.895,4.8942,4.8944,4.8945,4.8927,4.8927,4.8927,0,0,4.9154,4.9143,4.914,4.9127,4.9108,4.9092,4.9091,4.9068,4.9058,4.9047,4.9028,4.9017,4.8996,4.8981,4.8971,4.8979,4.8964,4.8975,4.8987,4.898,4.8981,4.8982,4.8982,4.8983,4.8975,4.8975,4.8975,0,4.9172,4.9159,4.914,4.9132,4.9123,4.91,4.9096,4.9084,4.9061,4.9054,4.9047,4.9018,4.9003,4.8989,4.899,4.8984,4.898,4.8978,4.8982,4.8983,4.8984,4.8984,4.8984,4.8977,4.8976,4.8976,4.8976,0,4.9181,4.9172,4.9172,4.915,4.914,4.9135,4.9112,4.9104,4.909,4.9075,4.9061,4.9042,4.9023,4.9018,4.9005,4.9001,4.8998,4.8987,4.8976,4.8987,4.8987,4.8987,4.8978,4.8978,4.8978,4.8977,0,0,4.9217,4.9183,4.9183,4.9172,4.9147,4.9139,4.913,4.9112,4.9104,4.9088,4.9078,4.9059,4.9048,4.9037,4.9021,4.9015,4.9019,4.9005,4.9004,4.9007,4.901,4.9017,4.9018,4.9009,4.9009,4.9009,4.9011,0,4.923,4.9215,4.9196,4.9186,4.9176,4.9153,4.9145,4.9127,4.9112,4.9099,4.9081,4.9067,4.9055,4.9047,4.904,4.902,4.9019,4.902,4.8998,4.8997,4.9003,4.9018,4.9026,4.9029,4.9011,4.9011,4.9011,0,4.9244,4.9228,4.9218,4.9192,4.9186,4.918,4.916,4.9149,4.9127,4.9116,4.9101,4.9084,4.907,4.906,4.904,4.9041,4.903,4.9018,4.9018,4.9014,4.9004,4.9013,4.903,4.903,4.9011,4.9011,4.9011,0,4.9268,4.9246,4.9236,4.9227,4.9196,4.9191,4.9178,4.9156,4.9145,4.9127,4.9119,4.9099,4.9088,4.9071,4.9048,4.9043,4.9028,4.9017,4.9016,4.9017,4.9014,4.9014,4.9028,4.9009,4.9009,4.9009,4.9009,0,4.9284,4.9278,4.9246,4.924,4.9231,4.9207,4.9199,4.9183,4.9163,4.9151,4.913,4.9119,4.9089,4.9074,4.9055,4.9039,4.9034,4.9023,4.9018,4.9024,4.9026,4.9017,4.9015,4.9009,4.9009,4.9009,4.9009,0,4.931,4.9289,4.9276,4.9248,4.924,4.9235,4.9209,4.9201,4.9183,4.9168,4.9163,4.9135,4.9115,4.909,4.9063,4.905,4.9035,4.9028,4.9043,4.9039,4.9039,4.9039,4.9046,4.9045,4.9029,4.9029,4.9029,0,4.9321,4.9316,4.9287,4.9278,4.9265,4.9251,4.924,4.9215,4.9203,4.9177,4.917,4.9149,4.9131,4.91,4.9075,4.9053,4.9044,4.9048,4.9041,4.9047,4.9042,4.9042,4.904,4.905,4.9051,4.9051,4.9051,0,4.9342,4.9331,4.9316,4.9297,4.9284,4.9267,4.9249,4.9242,4.9213,4.9201,4.9181,4.9167,4.9138,4.9116,4.909,4.9073,4.9056,4.9053,4.9051,4.9058,4.9066,4.9059,4.9046,4.9053,4.9053,4.9053,4.9053,4.9053,4.9359,4.9352,4.933,4.9313,4.9297,4.928,4.927,4.9251,4.9234,4.921,4.9195,4.9175,4.9149,4.9113,4.9097,4.9079,4.9073,4.9071,4.907,4.9069,4.907,4.9069,4.9074,4.9074,4.9074,4.9074,4.9073,0,4.9377,4.9361,4.9346,4.9321,4.9307,4.9294,4.9272,4.9261,4.9244,4.9222,4.9204,4.918,4.9157,4.913,4.9106,4.9096,4.9087,4.909,4.909,4.9086,4.9078,4.9082,4.9097,4.9097,4.9097,4.9097,4.9097,4.9097,4.9384,4.9371,4.9357,4.9334,4.9318,4.9299,4.9288,4.9271,4.9253,4.9227,4.9209,4.9192,4.9167,4.914,4.9118,4.911,4.9101,4.9106,4.9096,4.9089,4.9087,4.9085,4.9088,4.9104,4.9104,4.9104,4.9104,4.9104]}]]